This demonstration page uses our WeatherBlox Daily Observations layout. Learn more.

Left ArrowRight Arrow

Hourly Observations for February 24, 2019

Temp ( °F °C ) Dew Point ( °F °C ) Humidity (%) Winds ( mph kmh ) Pressure ( in mb ) Visibility ( mi km ) Precip ( " mm )
6:30 am 06:30 Cloudy 46 8 32 0 57 57 W 30 48 29.56 1001 10 16 N/A
6:47 am 06:47 Cloudy 43 6 30 -1 61 61 W 33 54 29.60 1002 10 16 N/A
7:09 am 07:09 Cloudy 41 5 28 -2 61 61 W 29 46 29.63 1003 10 16 N/A
7:45 am 07:45 Cloudy 39 4 28 -2 65 65 W 30 48 29.66 1005 10 16 N/A
8:06 am 08:06 Cloudy 39 4 27 -3 61 61 W 29 46 29.70 1006 10 16 N/A
8:50 am 08:50 Cloudy 37 3 27 -3 65 65 W 31 50 29.75 1007 10 16 N/A
9:29 am 09:29 Cloudy 36 2 25 -4 65 65 W 35 56 29.77 1008 10 16 N/A
9:47 am 09:47 Cloudy 36 2 25 -4 65 65 W 29 46 29.78 1008 10 16 N/A
10:17 am 10:17 Cloudy 36 2 27 -3 70 70 W 32 52 29.81 1009 7 11 N/A
10:48 am 10:48 Mostly Cloudy 37 3 27 -3 65 65 W 29 46 29.83 1010 7 11 N/A
11:09 am 11:09 Windy with Snow Likely 36 2 28 -2 75 75 WSW 28 44 29.86 1011 5 8 N/A
11:59 am 11:59 Cloudy 37 3 27 -3 65 65 W 23 37 29.89 1012 10 16 N/A
12:48 pm 12:48 Mostly Cloudy 37 3 25 -4 60 60 W 29 46 29.91 1013 10 16 N/A
1:48 pm 13:48 Partly Cloudy 39 4 23 -5 52 52 W 32 52 29.92 1013 10 16 N/A
2:45 pm 14:45 Mostly Sunny 41 5 21 -6 45 45 W 29 46 29.94 1014 10 16 N/A
3:45 pm 15:45 Mostly Sunny 41 5 19 -7 42 42 W 24 39 29.98 1015 10 16 N/A
4:45 pm 16:45 Mostly Sunny 39 4 18 -8 42 42 W 30 48 30.02 1017 10 16 N/A
5:50 pm 17:50 Mostly Sunny 37 3 18 -8 45 45 W 26 43 30.06 1018 10 16 N/A
6:45 pm 18:45 Mostly Clear 36 2 16 -9 44 44 W 21 33 30.09 1019 10 16 N/A
7:45 pm 19:45 Mostly Clear 32 0 12 -11 44 44 W 38 61 30.14 1021 10 16 N/A
8:45 pm 20:45 Mostly Clear 32 0 12 -11 44 44 WNW 17 28 30.17 1022 10 16 N/A
9:45 pm 21:45 Mostly Clear 30 -1 16 -9 55 55 W 17 28 30.20 1023 10 16 N/A

Powered by AerisWeather